NOAA 16 DEB, 42341

Orbit data source: Space-Track

NOAA 16 DEB, 42341 is space debris in SSO originally from a launch on Thu, 21 Sep 2000 UTC launched from the Air Force Western Test Range (AFWTR). Debris objects in space refer to the collection of defunct objects orbiting the Earth. Examples of debris include non-operational satellites, rocket bodies, and fragments generated from explosions, collisions, or faulty payload assembly.

Loading next visibility...
Identifier
42341, 2000-055QH
Orbit
SSO
Country
Flag of USUS
Related business
Manufacturer
Unknown
Mission
Spacecraft
Bus & Motor
Unknown
Mass
Unknown
Launch date (UTC)
2000-09-21 (25 years ago)
Launch vehicle
Unknown
Launch site
Air Force Western Test Range (AFWTR)
Object type
Payload
Rocket body
Debris
Shape & HBR
Unknown shape, 0.1 m
Radar Cross Section
Small (<0.1 m²)

Expand to show TLE details & history
Last TLE update: 1 day ago

TLE from 1 day ago
0 NOAA 16 DEB
1 42341U 00055QH  25292.60533673  .00038136  00000-0  69499-2 0  9997
2 42341  98.7228  62.5831 0027386  28.0918 332.1755 14.65639521505403
Epoch: 2025-10-19T14:31Z
TLE epoch observation values (Epoch: 2025-10-19T14:31:41.093Z)
Latitude
0.00003°
Longitude
176.34227°
Altitude
660.925 km
Speed
7.536 km/s
True Right ascension
04h 10m 19s
True Declination
0° 00' 00"
Sunlit
Object was in full shadow at epoch
Visualization orbit readout
Latitude
Unknown
Longitude
Unknown
Altitude
Unknown
Speed
Unknown
Apparent Right ascension
Unknown
Apparent Declination
Unknown
Sunlit
N/A
Visualization observer readout
Local Sidereal Time
16:14:18
Azimuth
Unknown
Elevation
Unknown
Doppler factor
Unknown
Orbital elements
Apogee altitude
691.429 km
Perigee altitude
652.814 km
Semi-major axis
7,050.258 km
Eccentricity
0.00274
Inclination
98.7228°
RAAN
62.5831°
Arg. of periapsis
28.0918°
True anomaly
332.02858°
Mean anomaly
332.1755°
Eccentric anomaly
332.10208°
Mean motion
3.66636 °/min
Orbital period
98.19 mins
BSTAR
0.0069499
Loading maneuver chart data...
Computing Atmospheric mass density...
Loading historical data...
Loading historical data...
Loading historical data...
Loading historical data...
Loading historical data...
Loading historical data...
Loading historical data...

Documentation

Showing up to 5 results
|